TimeEDT,TemperatureF,Dew PointF,Humidity,Sea Level PressureIn,VisibilityMPH,Wind Direction,Wind SpeedMPH,Gust SpeedMPH,PrecipitationIn,Events,Conditions,WindDirDegrees,DateUTC
12:26 AM,53.6,41.0,62,29.90,7.0,West,9.2,-,N/A,,Scattered Clouds,280,2012-10-21 04:26:00
12:28 AM,53.6,41.0,62,29.91,7.0,West,8.1,-,N/A,,Scattered Clouds,280,2012-10-21 04:28:00
12:55 AM,53.2,41.4,64,29.91,10.0,West,10.4,-,N/A,,Partly Cloudy,280,2012-10-21 04:55:00
1:33 AM,51.8,41.0,67,29.92,4.0,West,5.8,-,N/A,,Haze,270,2012-10-21 05:33:00
1:34 AM,51.8,41.0,67,29.92,4.0,West,5.8,-,N/A,,Haze,270,2012-10-21 05:34:00
1:35 AM,51.8,41.0,67,29.92,4.0,West,5.8,-,N/A,,Haze,270,2012-10-21 05:35:00
1:42 AM,51.8,41.0,67,29.92,6.0,West,8.1,-,N/A,,Haze,280,2012-10-21 05:42:00
1:55 AM,51.6,41.4,68,29.93,7.0,West,5.8,-,N/A,,Clear,270,2012-10-21 05:55:00
2:00 AM,51.8,41.0,67,29.93,5.0,West,5.8,-,N/A,,Haze,260,2012-10-21 06:00:00
2:03 AM,51.8,41.0,67,29.93,4.0,West,5.8,-,N/A,,Haze,270,2012-10-21 06:03:00
2:21 AM,50.0,41.0,71,29.94,4.0,West,6.9,-,N/A,,Haze,270,2012-10-21 06:21:00
2:29 AM,51.8,41.0,67,29.94,6.0,West,9.2,-,N/A,,Haze,280,2012-10-21 06:29:00
2:55 AM,50.9,41.4,70,29.94,9.0,West,8.1,-,N/A,,Clear,280,2012-10-21 06:55:00
3:13 AM,50.0,41.0,71,29.94,5.0,West,5.8,-,N/A,,Haze,270,2012-10-21 07:13:00
3:17 AM,50.0,41.0,71,29.94,5.0,West,5.8,-,N/A,,Haze,280,2012-10-21 07:17:00
3:55 AM,49.1,41.0,74,29.94,10.0,WSW,5.8,-,N/A,,Clear,250,2012-10-21 07:55:00
4:55 AM,48.2,41.4,77,29.96,10.0,Calm,Calm,-,N/A,,Clear,0,2012-10-21 08:55:00
5:55 AM,46.4,41.4,83,29.99,10.0,WSW,5.8,-,N/A,,Clear,240,2012-10-21 09:55:00
6:55 AM,46.4,41.4,83,30.01,10.0,WSW,6.9,-,N/A,,Clear,250,2012-10-21 10:55:00
7:55 AM,47.1,41.9,82,30.04,10.0,WSW,5.8,-,N/A,,Clear,240,2012-10-21 11:55:00
8:55 AM,51.8,43.7,74,30.06,10.0,West,8.1,-,N/A,,Clear,260,2012-10-21 12:55:00
9:55 AM,55.4,44.1,66,30.07,10.0,West,12.7,-,N/A,,Clear,280,2012-10-21 13:55:00
10:55 AM,59.2,44.4,58,30.06,9.0,WNW,9.2,-,N/A,,Clear,290,2012-10-21 14:55:00
11:55 AM,61.3,44.4,54,30.06,10.0,NW,8.1,-,N/A,,Clear,310,2012-10-21 15:55:00
12:55 PM,63.1,44.2,50,30.04,10.0,NW,9.2,-,N/A,,Clear,320,2012-10-21 16:55:00
1:55 PM,63.5,43.3,48,30.02,10.0,West,10.4,-,N/A,,Clear,280,2012-10-21 17:55:00
2:55 PM,65.5,43.2,44,30.02,10.0,WNW,12.7,-,N/A,,Partly Cloudy,290,2012-10-21 18:55:00
3:55 PM,65.3,42.4,43,30.01,10.0,West,12.7,-,N/A,,Scattered Clouds,270,2012-10-21 19:55:00
4:55 PM,62.8,42.4,47,30.02,10.0,West,9.2,-,N/A,,Scattered Clouds,280,2012-10-21 20:55:00
5:55 PM,61.0,43.0,52,30.03,10.0,West,8.1,-,N/A,,Partly Cloudy,280,2012-10-21 21:55:00
6:55 PM,58.1,42.6,56,30.05,10.0,West,5.8,-,N/A,,Clear,270,2012-10-21 22:55:00
7:55 PM,56.1,42.6,61,30.06,10.0,Variable,3.5,-,N/A,,Clear,0,2012-10-21 23:55:00
8:55 PM,54.5,42.6,64,30.07,10.0,WSW,3.5,-,N/A,,Clear,250,2012-10-22 00:55:00
9:55 PM,51.6,42.8,72,30.09,10.0,WSW,5.8,-,N/A,,Clear,250,2012-10-22 01:55:00
10:55 PM,51.8,42.4,70,30.10,10.0,West,6.9,-,N/A,,Clear,260,2012-10-22 02:55:00
11:55 PM,51.1,42.4,72,30.10,10.0,West,3.5,-,N/A,,Clear,260,2012-10-22 03:55:00